Shaw Air Force Base
KSSC : now visible

Airfield :











YOU CAN JOIN US ON...

 
LOGIN :

Register | Disclaimer

   EN    FR    IT 

 









Legend :    VFR   Marginal VFR   IFR   Intensive IFR   Very Intensive IFR
Visi :
Ceiling :
>= 8 km
>= 3000ft
5 to 8 km
1000 to 3000 ft
1500m to 5 km
500 to 1000 ft
800 to 1500m
200 to 500 ft
< 800m
< 200 ft
Symbols :   Thunderstorms  Fog  Heavy snow  Heavy precipitations  Wind > 20 kt






- Airport Elevation : 241 ft


KSSC - Shaw Air Force Base

CURRENT METAR :
  • 142156Z AUTO 07007KT 10SM BKN055 BKN080 35/23 A2996 RMK AO2 SLP144 T03460229 $

EXPIRED METARs :
  • 142056Z AUTO 09004KT 10SM CLR 35/22 A2996 RMK AO2 SLP144 T03500219 55007 $
  • 141956Z AUTO 00000KT 10SM CLR 34/22 A2996 RMK AO2 SLP144 T03410218 $

TAF TAF KSSC
Valid from the 14 at 15:00 until the 15 at 21:00 UTC


141500Z 1415/1521 05006KT 9999 SCT050 QNH2998INS
BECMG 1418/1419 VRB06KT 9999 VCSH SCT060 QNH2995INS
BECMG 1423/1424 VRB06KT 9999 NSW SCT040 QNH2997INS
BECMG 1511/1512 11005KT 9999 FEW060 QNH3004INS TX34/1420Z TN23/1510Z
KZJX FIR / North America



MET'MAP, your aeronautical weather chart ! - Copyright ORBIFLY December 2007 - Disclaimer

ORBIFLY MET'MAP TEAM :

Programming & Development : Alexandra Zaïnal
Concept & original design : Baudouin d'Aumeries
Assistance for programming : Marc-Olivier Méhu
Technical & hardware support : Manuel Goepfert

Contact : metmap@orbifly.com




SOURCES & CREDITS :

   NOAA       Earth
Advisory